Regional Weather Roundup
Issued by NWS

Home | Current Version | Previous Version | Text Only | Print | Product List | Glossary Off
Versions: 1 2 3 4 5 6 7 8 9 10 11 12 13 14 15 16 17 18 19 20 21 22 23 24 25 26 27 28 29 30 31 32 33 34 35 36 37 38 39 40 41 42 43 44 45 46 47 48 49 50

000
ASUS43 KLOT 221006
RWRIL

ILLINOIS REGIONAL WEATHER ROUNDUP
NATIONAL WEATHER SERVICE CHICAGO/ROMEOVILLE IL
400 AM CST MON DEC 22 2014

NOTE: "FAIR" INDICATES FEW OR NO CLOUDS BELOW 12,000 FEET WITH NO
SIGNIFICANT WEATHER AND/OR OBSTRUCTIONS TO VISIBILITY.

* THESE STATIONS ARE NOT UNDER NWS QUALITY CONTROL. THEY ALSO MAY NOT
  REPORT WEATHER SUCH AS PRECIPITATION OR FOG.

ILZ001-002-007-009-015-016-024-221100-
NORTHWEST ILLINOIS

CITY           SKY/WX    TMP DP  RH WIND       PRES   REMARKS
MOLINE         CLOUDY    36  31  82 S15       29.84F WCI  27
STERLING*      CLOUDY    34  28  80 SE8       29.89F WCI  27
SAVANNA*       CLOUDY    35  31  85 SE10      29.87F WCI  28
$$

ILZ003-004-008-010-011-017-018-221100-
NORTH CENTRAL ILLINOIS

CITY           SKY/WX    TMP DP  RH WIND       PRES   REMARKS
ROCKFORD       DRIZZLE   33  30  88 SE9       29.93F FOG     WCI  25
FREEPORT*      CLOUDY    32  31  96 SE14      29.90F FOG     WCI  22
ROCHELLE*      CLOUDY    32  31  94 SE13      29.91F FOG     WCI  22
DE KALB*       CLOUDY    31  28  90 SE12      29.93F FOG     WCI  21
PERU*          CLOUDY    34  31  89 SE13      29.92S FOG     WCI  25
$$

ILZ005-006-012>014-019>023-221100-
NORTHEAST ILLINOIS

CITY           SKY/WX    TMP DP  RH WIND       PRES   REMARKS
CHICAGO-OHARE  CLOUDY    29  25  85 SE8       29.96F WCI  21
CHICAGO-MIDWAY PTCLDY    32  26  78 SE8       29.97F WCI  25
AURORA         CLOUDY    32  27  81 SE7       29.95F HAZE    WCI  26
LANSING*       PTCLDY    30  26  88 SE7       29.97F FOG     WCI  23
JOLIET*        CLOUDY    31  28  87 SE3       29.96S FOG
WAUKEGAN       PTCLDY    32  26  78 SE9       29.95F WCI  24
DUPAGE AIRPORT CLOUDY    31  27  85 SE7       29.94F WCI  24
KANKAKEE*      CLOUDY    31  28  90 E6        29.97F WCI  25
WHEELING       PTCLDY    29  25  85 SE7       29.98F WCI  22
MORRIS*        CLOUDY    33  31  90 S10       29.95S WCI  25
ROMEOVILLE*    CLOUDY    31  28  89 S9        29.96S FOG     WCI  23
NORTHERLY ISL    N/A     31  27  85 SE9         N/A  WCI  23
$$

LMZ740>746-221100-
SOUTHERN LAKE MICHIGAN

STATION/POSITION SKY/WX   TEMP    WIND        PRES    VSBY  WAVE
                          AIR SEA DIR/SP/G                  HT/PER
                          (F)     (DEG/KT/KT) (MB)    (MI)  (FT/S)
WAUKEGAN HARBOR            33     160/ 15/ 18   N/A
HARRISON CRIB              32     160/ 13/ 15   N/A
BURNHAM HARBOR             31     150/  8/ 10   N/A
CALUMET HARBOR             31     140/  7/ 10 1013.9F
$$

ILZ025>027-034>036-040-047-049-050-058-095>099-221100-
WEST-CENTRAL ILLINOIS

CITY           SKY/WX    TMP DP  RH WIND       PRES   REMARKS
QUINCY         CLOUDY    40  32  73 SE12      29.80F
GALESBURG*     CLOUDY    36  32  87 SE8       29.84F WCI  29
MACOMB*        CLOUDY    37  33  87 SE13      29.86F WCI  29
JACKSONVILLE*  CLOUDY    39  33  79 SE13      29.85F WCI  32
PITTSFIELD*    CLOUDY    40  33  78 SE8       29.83F
$$

ILZ028>032-037-038-041>044-048-051>054-059>061-221100-
CENTRAL ILLINOIS

CITY           SKY/WX    TMP DP  RH WIND       PRES   REMARKS
PONTIAC        CLOUDY    34  31  90 SE10      29.94F WCI  26
BLOOMINGTON    CLOUDY    33  30  89 SE10      29.93F WCI  25
DECATUR        CLOUDY    34  30  85 SE8       29.91F WCI  27
PEORIA         LGT RAIN  37  31  78 SE8       29.90F WCI  31
LACON*         CLOUDY    35  29  79 S8        29.90F WCI  29
LINCOLN*       DRIZZLE   36  32  84 SE7       29.91F WCI  31
SPRINGFIELD    CLOUDY    37  31  78 SE12      29.88F WCI  29
TAYLORVILLE    CLOUDY    34  32  93 E9        29.88F WCI  26
$$

ILZ033-039-045-046-055>057-062-063-221100-
EAST-CENTRAL ILLINOIS

CITY           SKY/WX    TMP DP  RH WIND       PRES   REMARKS
CHAMPAIGN      CLOUDY    32  29  88 E10       29.94F WCI  24
DANVILLE*      CLOUDY    31  28  90 SE5       29.94F WCI  26
RANTOUL*       CLOUDY    33  31  91 SE5       29.95F FOG     WCI  29
MATTOON        CLOUDY    33  28  81 SE12      29.92F WCI  24
PARIS*         CLOUDY    32  30  92 SE5       29.96F WCI  28
$$

ILZ079-100>102-221100-
SOUTHWEST ILLINOIS

CITY           SKY/WX    TMP DP  RH WIND       PRES   REMARKS
ALTON          LGT RAIN  39  32  76 E8        29.85F WCI  33
BELLEVILLE     CLOUDY    39  34  83 E8        29.86F WCI  34
CAHOKIA*       CLOUDY    42  32  67 SE8       29.85F
SPARTA*        CLOUDY    39  32  76 SE12      29.87F WCI  32
$$

ILZ064>066-069>071-074>076-080>082-084>086-088>090-092>094-221100-
SOUTH-CENTRAL ILLINOIS

CITY           SKY/WX    TMP DP  RH WIND       PRES   REMARKS
CARBONDALE     CLOUDY    40  32  73 SE5       29.88F
CAIRO*         CLOUDY    46  40  78 SE7       29.87F
EFFINGHAM*     CLOUDY    35  28  78 E9        29.93F WCI  27
MARION         CLOUDY    41  32  70 SE6       29.89F
MT. VERNON     CLOUDY    37  28  70 E5        29.90F WCI  34
CENTRALIA*     CLOUDY    38  30  74 SE6       29.89F WCI  33
SALEM*         CLOUDY    39  31  73 E8        29.90F WCI  34
METROPOLIS*    CLOUDY    42  36  79 SE5       29.89F
$$

ILZ067-068-072-073-078-083-087-091-221100-
SOUTHEAST ILLINOIS

CITY           SKY/WX    TMP DP  RH WIND       PRES   REMARKS
LAWRENCEVILLE  CLOUDY    34  30  85 E7        29.95F WCI  28
FLORA*         CLOUDY    35  31  85 E5        29.93F WCI  31
FAIRFIELD*     CLOUDY    37  31  79 E5        29.91F WCI  33
HARRISBURG*    CLOUDY    38  32  79 E9        29.92F WCI  31
ROBINSON*      CLOUDY    33  30  88 E5        29.96F WCI  29
CARMI*         CLOUDY    38  34  84 E7        29.92F WCI  33
$$

ABBREVIATIONS USED IN REMARKS
   TC - TEMPERATURE IN CELSIUS
  WCI - WIND CHILL INDEX
   HX - HEAT INDEX
  VSB - VISIBILITY
$$




USA.gov is the U.S. government's official web portal to all federal, state and local government web resources and services.